"Period start","avg(HW err(1)/warn(2) (#))","avg(Visibility (m))","avg(Weather code (#))","avg(Precip intensity (mm/h))","min(HW err(1)/warn(2) (#))","max(HW err(1)/warn(2) (#))","std(HW err(1)/warn(2) (#))","med(HW err(1)/warn(2) (#))","min(Visibility (m))","max(Visibility (m))","std(Visibility (m))","med(Visibility (m))","min(Weather code (#))","max(Weather code (#))","std(Weather code (#))","med(Weather code (#))","min(Precip intensity (mm/h))","max(Precip intensity (mm/h))","std(Precip intensity (mm/h))","med(Precip intensity (mm/h))"
2017-05-18 00:00:00,2,39563,0,0.00,2,2,0,2,29743,48955,6402,37916,0,0,0,0,0.00,0.00,0.00,0.00
2017-05-18 00:10:00,2,43207,0,0.00,2,2,0,2,31292,50000,7254,45421,0,0,0,0,0.00,0.00,0.00,0.00
2017-05-18 00:20:00,2,41538,0,0.00,2,2,0,2,23088,50000,9137,43576,0,0,0,0,0.00,0.00,0.00,0.00
2017-05-18 00:30:00,2,35586,0,0.00,2,2,0,2,27190,50000,8617,32542,0,0,0,0,0.00,0.00,0.00,0.00
2017-05-18 00:40:00,2,34516,0,0.00,2,2,0,2,19892,50000,9830,37838,0,0,0,0,0.00,0.00,0.00,0.00
2017-05-18 00:50:00,2,39906,0,0.00,2,2,0,2,25197,47727,8427,43569,0,0,0,0,0.00,0.00,0.00,0.00
2017-05-18 01:00:00,2,37761,0,0.00,2,2,0,2,23550,50000,7787,37372,0,0,0,0,0.00,0.00,0.00,0.00
2017-05-18 01:10:00,2,43800,0,0.00,2,2,0,2,32842,50000,6095,45692,0,0,0,0,0.00,0.00,0.00,0.00
2017-05-18 01:20:00,2,39316,0,0.00,2,2,0,2,26382,50000,7160,39317,0,0,0,0,0.00,0.00,0.00,0.00
2017-05-18 01:30:00,2,46553,0,0.00,2,2,0,2,37445,50000,4437,48549,0,0,0,0,0.00,0.00,0.00,0.00
2017-05-18 01:40:00,2,44287,0,0.00,2,2,0,2,30171,50000,6654,47622,0,0,0,0,0.00,0.00,0.00,0.00
2017-05-18 01:50:00,2,39161,0,0.00,2,2,0,2,24548,50000,8562,40986,0,0,0,0,0.00,0.00,0.00,0.00
2017-05-18 02:00:00,2,38835,0,0.00,2,2,0,2,27791,50000,7401,39478,0,0,0,0,0.00,0.00,0.00,0.00
2017-05-18 02:10:00,2,41002,0,0.00,2,2,0,2,26781,50000,9325,43718,0,0,0,0,0.00,0.00,0.00,0.00
2017-05-18 02:20:00,2,35871,0,0.00,2,2,0,2,22122,47693,8068,35368,0,0,0,0,0.00,0.00,0.00,0.00
2017-05-18 02:30:00,2,39076,0,0.00,2,2,0,2,20395,50000,8066,39134,0,0,0,0,0.00,0.00,0.00,0.00
2017-05-18 02:40:00,2,35394,0,0.00,2,2,0,2,25753,45692,6384,35511,0,0,0,0,0.00,0.00,0.00,0.00
2017-05-18 02:50:00,2,41211,0,0.00,2,2,0,2,34917,50000,4101,40554,0,0,0,0,0.00,0.00,0.00,0.00
2017-05-18 03:00:00,2,41301,0,0.00,2,2,0,2,22915,50000,8391,42993,0,0,0,0,0.00,0.00,0.00,0.00
2017-05-18 03:10:00,2,43284,0,0.00,2,2,0,2,33028,50000,6206,45384,0,0,0,0,0.00,0.00,0.00,0.00
2017-05-18 03:20:00,2,39860,0,0.00,2,2,0,2,22553,50000,9668,44420,0,0,0,0,0.00,0.00,0.00,0.00
2017-05-18 03:30:00,2,40905,0,0.00,2,2,0,2,28433,50000,7667,41342,0,0,0,0,0.00,0.00,0.00,0.00
2017-05-18 03:40:00,2,36481,0,0.00,2,2,0,2,21804,50000,10669,37166,0,0,0,0,0.00,0.00,0.00,0.00
2017-05-18 03:50:00,2,38506,0,0.00,2,2,0,2,24169,50000,9055,40818,0,0,0,0,0.00,0.00,0.00,0.00
2017-05-18 04:00:00,2,43122,0,0.00,2,2,0,2,27975,50000,7816,44845,0,0,0,0,0.00,0.00,0.00,0.00
2017-05-18 04:10:00,2,38245,0,0.00,2,2,0,2,24355,50000,7021,39758,0,0,0,0,0.00,0.00,0.00,0.00
2017-05-18 04:20:00,2,39950,0,0.00,2,2,0,2,23085,50000,10119,41720,0,0,0,0,0.00,0.00,0.00,0.00
2017-05-18 04:30:00,2,37656,0,0.00,2,2,0,2,19857,50000,10131,40409,0,0,0,0,0.00,0.00,0.00,0.00
2017-05-18 04:40:00,2,39945,0,0.00,2,2,0,2,27748,50000,6993,40601,0,0,0,0,0.00,0.00,0.00,0.00
2017-05-18 04:50:00,2,47121,0,0.00,2,2,0,2,39206,50000,3575,48676,0,0,0,0,0.00,0.00,0.00,0.00
2017-05-18 05:00:00,2,47709,0,0.00,2,2,0,2,41074,50000,3050,50000,0,0,0,0,0.00,0.00,0.00,0.00
2017-05-18 05:10:00,2,40089,0,0.00,2,2,0,2,29563,50000,6236,39804,0,0,0,0,0.00,0.00,0.00,0.00
2017-05-18 05:20:00,2,46519,0,0.00,2,2,0,2,40665,50000,3130,46746,0,0,0,0,0.00,0.00,0.00,0.00
2017-05-18 05:30:00,2,46646,0,0.00,2,2,0,2,36983,50000,4687,50000,0,0,0,0,0.00,0.00,0.00,0.00
2017-05-18 05:40:00,2,34740,0,0.00,2,2,0,2,30935,42472,3694,33107,0,0,0,0,0.00,0.00,0.00,0.00
2017-05-18 05:50:00,2,42848,0,0.00,2,2,0,2,29363,50000,7285,44658,0,0,0,0,0.00,0.00,0.00,0.00
2017-05-18 06:00:00,2,44749,0,0.00,2,2,0,2,35764,50000,4704,43784,0,0,0,0,0.00,0.00,0.00,0.00
2017-05-18 06:10:00,2,38705,0,0.00,2,2,0,2,23082,50000,8235,38636,0,0,0,0,0.00,0.00,0.00,0.00
2017-05-18 06:20:00,2,44665,0,0.00,2,2,0,2,33321,50000,6119,46805,0,0,0,0,0.00,0.00,0.00,0.00
2017-05-18 06:30:00,2,45433,0,0.00,2,2,0,2,35576,50000,5071,47704,0,0,0,0,0.00,0.00,0.00,0.00
2017-05-18 06:40:00,2,42633,0,0.00,2,2,0,2,36178,47793,3740,43082,0,0,0,0,0.00,0.00,0.00,0.00
2017-05-18 06:50:00,2,43764,0,0.00,2,2,0,2,35977,50000,5446,42899,0,0,0,0,0.00,0.00,0.00,0.00
2017-05-18 07:00:00,2,49520,0,0.00,2,2,0,2,46506,50000,1078,50000,0,0,0,0,0.00,0.00,0.00,0.00
2017-05-18 07:10:00,2,42835,0,0.00,2,2,0,2,35728,50000,5425,42935,0,0,0,0,0.00,0.00,0.00,0.00
2017-05-18 07:20:00,2,45140,0,0.00,2,2,0,2,36523,50000,4826,47171,0,0,0,0,0.00,0.00,0.00,0.00
2017-05-18 07:30:00,2,46771,0,0.00,2,2,0,2,42139,50000,2800,47018,0,0,0,0,0.00,0.00,0.00,0.00
2017-05-18 07:40:00,2,44113,0,0.00,2,2,0,2,36754,50000,4975,45284,0,0,0,0,0.00,0.00,0.00,0.00
2017-05-18 07:50:00,2,43418,0,0.00,2,2,0,2,30626,50000,5681,44672,0,0,0,0,0.00,0.00,0.00,0.00
2017-05-18 08:00:00,2,43896,0,0.00,2,2,0,2,32246,50000,6325,44592,0,0,0,0,0.00,0.00,0.00,0.00
2017-05-18 08:10:00,2,48718,0,0.00,2,2,0,2,42701,50000,2418,50000,0,0,0,0,0.00,0.00,0.00,0.00
2017-05-18 08:20:00,2,41016,0,0.00,2,2,0,2,29335,50000,5882,42221,0,0,0,0,0.00,0.00,0.00,0.00
2017-05-18 08:30:00,2,44182,0,0.00,2,2,0,2,36823,50000,4900,43704,0,0,0,0,0.00,0.00,0.00,0.00
2017-05-18 08:40:00,2,48224,0,0.00,2,2,0,2,39968,50000,3113,50000,0,0,0,0,0.00,0.00,0.00,0.00
2017-05-18 08:50:00,2,45345,0,0.00,2,2,0,2,36990,50000,4566,47277,0,0,0,0,0.00,0.00,0.00,0.00
2017-05-18 09:00:00,2,49143,0,0.00,2,2,0,2,45472,50000,1453,50000,0,0,0,0,0.00,0.00,0.00,0.00
2017-05-18 09:10:00,2,49323,0,0.00,2,2,0,2,44133,50000,1751,50000,0,0,0,0,0.00,0.00,0.00,0.00
2017-05-18 09:20:00,2,49035,0,0.00,2,2,0,2,44659,50000,1696,50000,0,0,0,0,0.00,0.00,0.00,0.00
2017-05-18 09:30:00,2,47362,0,0.00,2,2,0,2,41014,50000,3076,48737,0,0,0,0,0.00,0.00,0.00,0.00
2017-05-18 09:40:00,2,43568,0,0.00,2,2,0,2,30258,50000,5825,43810,0,0,0,0,0.00,0.00,0.00,0.00
2017-05-18 09:50:00,2,45695,0,0.00,2,2,0,2,40644,50000,2744,45618,0,0,0,0,0.00,0.00,0.00,0.00
2017-05-18 10:00:00,2,46642,0,0.00,2,2,0,2,37792,50000,4152,48154,0,0,0,0,0.00,0.00,0.00,0.00
2017-05-18 10:10:00,2,47754,0,0.00,2,2,0,2,37940,50000,3749,50000,0,0,0,0,0.00,0.00,0.00,0.00
2017-05-18 10:20:00,2,47549,0,0.00,2,2,0,2,42637,50000,3029,49706,0,0,0,0,0.00,0.00,0.00,0.00
2017-05-18 10:30:00,2,47890,0,0.00,2,2,0,2,42789,50000,2629,49200,0,0,0,0,0.00,0.00,0.00,0.00
2017-05-18 10:40:00,2,47563,0,0.00,2,2,0,2,41498,50000,3088,48911,0,0,0,0,0.00,0.00,0.00,0.00
2017-05-18 10:50:00,2,49380,0,0.00,2,2,0,2,46793,50000,1077,50000,0,0,0,0,0.00,0.00,0.00,0.00
2017-05-18 11:00:00,2,48927,0,0.00,2,2,0,2,44039,50000,2079,50000,0,0,0,0,0.00,0.00,0.00,0.00
2017-05-18 11:10:00,2,46170,0,0.00,2,2,0,2,39480,50000,3566,47484,0,0,0,0,0.00,0.00,0.00,0.00
2017-05-18 11:20:00,2,48447,0,0.00,2,2,0,2,43969,50000,2309,50000,0,0,0,0,0.00,0.00,0.00,0.00
2017-05-18 11:30:00,2,49386,0,0.00,2,2,0,2,46733,50000,1198,50000,0,0,0,0,0.00,0.00,0.00,0.00
2017-05-18 11:40:00,2,45348,0,0.00,2,2,0,2,38195,50000,3655,44986,0,0,0,0,0.00,0.00,0.00,0.00
2017-05-18 11:50:00,2,47510,0,0.00,2,2,0,2,39396,50000,3788,49850,0,0,0,0,0.00,0.00,0.00,0.00
2017-05-18 12:00:00,2,48927,0,0.00,2,2,0,2,44321,50000,2083,50000,0,0,0,0,0.00,0.00,0.00,0.00
2017-05-18 12:10:00,2,48333,0,0.00,2,2,0,2,45097,50000,1798,48824,0,0,0,0,0.00,0.00,0.00,0.00
2017-05-18 12:20:00,2,49843,0,0.00,2,2,0,2,48745,50000,374,50000,0,0,0,0,0.00,0.00,0.00,0.00
2017-05-18 12:30:00,2,49318,0,0.00,2,2,0,2,46825,50000,1118,50000,0,0,0,0,0.00,0.00,0.00,0.00
2017-05-18 12:40:00,2,49761,0,0.00,2,2,0,2,48674,50000,479,50000,0,0,0,0,0.00,0.00,0.00,0.00
2017-05-18 12:50:00,2,49900,0,0.00,2,2,0,2,49003,50000,299,50000,0,0,0,0,0.00,0.00,0.00,0.00
2017-05-18 13:00:00,2,49957,0,0.00,2,2,0,2,49571,50000,129,50000,0,0,0,0,0.00,0.00,0.00,0.00
2017-05-18 13:10:00,2,50000,0,0.00,2,2,0,2,50000,50000,0,50000,0,0,0,0,0.00,0.00,0.00,0.00
2017-05-18 13:20:00,2,49829,0,0.00,2,2,0,2,48557,50000,431,50000,0,0,0,0,0.00,0.00,0.00,0.00
2017-05-18 13:30:00,2,50000,0,0.00,2,2,0,2,50000,50000,0,50000,0,0,0,0,0.00,0.00,0.00,0.00
2017-05-18 13:40:00,2,49822,0,0.00,2,2,0,2,48221,50000,534,50000,0,0,0,0,0.00,0.00,0.00,0.00
2017-05-18 13:50:00,2,45473,0,0.00,2,2,0,2,31958,50000,7117,50000,0,0,0,0,0.00,0.00,0.00,0.00
2017-05-18 14:00:00,2,15245,30,0.01,2,2,0,2,10330,25015,3908,14818,0,78,37,0,0.00,0.05,0.02,0.00
2017-05-18 14:10:00,2,22452,78,0.01,2,2,0,2,14438,36052,7048,20508,78,78,0,78,0.00,0.05,0.02,0.00
2017-05-18 14:20:00,2,25692,78,0.01,2,2,0,2,16696,40150,6562,24502,78,78,0,78,0.00,0.05,0.02,0.00
2017-05-18 14:30:00,2,37177,76,0.01,2,2,0,2,26717,48996,6043,36727,71,78,3,78,0.00,0.15,0.05,0.00
2017-05-18 14:40:00,2,26460,76,0.02,2,2,0,2,11872,36443,6600,26154,71,77,2,77,0.00,0.05,0.02,0.00
2017-05-18 14:50:00,2,20234,74,0.06,2,2,0,2,11780,31510,6229,21360,71,78,3,74,0.00,0.15,0.05,0.05
2017-05-18 15:00:00,2,10946,71,0.15,2,2,0,2,4570,18789,4294,10638,71,71,0,71,0.00,0.40,0.15,0.08
2017-05-18 15:10:00,2,23216,71,0.07,2,2,0,2,11311,34195,7893,25342,71,71,0,71,0.00,0.25,0.08,0.05
2017-05-18 15:20:00,2,15655,71,0.09,2,2,0,2,7648,23912,5665,15992,71,71,0,71,0.00,0.20,0.07,0.08
2017-05-18 15:30:00,2,16980,73,0.27,2,2,0,2,4320,31711,8667,15459,71,77,3,71,0.00,1.35,0.46,0.05
2017-05-18 15:40:00,2,25475,50,0.03,2,2,0,2,7465,37803,10490,28364,0,71,33,71,0.00,0.30,0.09,0.00
2017-05-18 15:50:00,2,19853,76,0.03,2,2,0,2,12540,27901,5698,17514,71,77,2,77,0.00,0.05,0.02,0.05
2017-05-18 16:00:00,2,13517,74,0.15,2,2,0,2,6095,21538,5326,13350,71,77,3,74,0.00,0.65,0.21,0.08
2017-05-18 16:10:00,2,10507,71,0.20,2,2,0,2,5958,15376,2448,10232,71,71,0,71,0.05,0.50,0.14,0.12
2017-05-18 16:20:00,2,24149,71,0.03,2,2,0,2,7734,50000,14718,15956,71,71,0,71,0.00,0.15,0.05,0.00
2017-05-18 16:30:00,2,27619,71,0.10,2,2,0,2,13884,46783,10206,26852,71,71,0,71,0.00,0.45,0.17,0.00
2017-05-18 16:40:00,2,31017,73,0.10,2,2,0,2,6407,50000,16942,39874,71,77,3,71,0.00,0.30,0.12,0.00
2017-05-18 16:50:00,2,29136,50,0.09,2,2,0,2,5578,50000,17283,26366,0,71,33,71,0.00,0.60,0.18,0.00
2017-05-18 17:00:00,2,48756,0,0.00,2,2,0,2,45306,50000,1642,49770,0,0,0,0,0.00,0.00,0.00,0.00
2017-05-18 17:10:00,2,48382,7,0.00,2,2,0,2,39900,50000,2965,49866,0,71,21,0,0.00,0.00,0.00,0.00
2017-05-18 17:20:00,2,34357,75,0.03,2,2,0,2,17250,50000,11964,35004,71,77,3,77,0.00,0.10,0.03,0.00
2017-05-18 17:30:00,2,38588,57,0.02,2,2,0,2,19375,50000,8198,36868,0,71,28,71,0.00,0.10,0.04,0.00
2017-05-18 17:40:00,2,49508,0,0.00,2,2,0,2,46864,50000,1029,50000,0,0,0,0,0.00,0.00,0.00,0.00
2017-05-18 17:50:00,2,40999,14,0.01,2,2,0,2,15189,50000,12817,47210,0,71,28,0,0.00,0.10,0.03,0.00
2017-05-18 18:00:00,2,40214,36,0.04,2,2,0,2,18575,50000,9648,42158,0,71,36,36,0.00,0.35,0.10,0.00
2017-05-18 18:10:00,2,49614,0,0.00,2,2,0,2,47456,50000,820,50000,0,0,0,0,0.00,0.00,0.00,0.00
2017-05-18 18:20:00,2,43216,52,0.00,2,2,0,2,26955,50000,7016,44902,0,78,34,71,0.00,0.00,0.00,0.00
2017-05-18 18:30:00,2,41483,54,0.01,2,2,0,2,20514,50000,10204,45798,0,78,35,78,0.00,0.05,0.02,0.00
2017-05-18 18:40:00,2,44590,15,0.01,2,2,0,2,30954,50000,5991,45563,0,71,25,0,0.00,0.10,0.03,0.00
2017-05-18 18:50:00,2,44534,22,0.01,2,2,0,2,26484,50000,7781,48648,0,78,34,0,0.00,0.05,0.02,0.00
2017-05-18 19:00:00,2,45070,23,0.01,2,2,0,2,30010,50000,7688,50000,0,78,35,0,0.00,0.05,0.02,0.00
2017-05-18 19:10:00,2,49420,0,0.00,2,2,0,2,44432,50000,1664,50000,0,0,0,0,0.00,0.00,0.00,0.00
2017-05-18 19:20:00,2,46925,0,0.00,2,2,0,2,38268,50000,4257,50000,0,0,0,0,0.00,0.00,0.00,0.00
2017-05-18 19:30:00,2,34007,71,0.06,2,2,0,2,12173,50000,11519,33630,71,71,0,71,0.00,0.35,0.10,0.00
2017-05-18 19:40:00,2,48700,0,0.00,2,2,0,2,43918,50000,2299,50000,0,0,0,0,0.00,0.00,0.00,0.00
2017-05-18 19:50:00,2,36289,67,0.01,2,2,0,2,13563,50000,10347,35636,0,78,22,71,0.00,0.15,0.05,0.00
2017-05-18 20:00:00,2,27348,74,0.08,2,2,0,2,16357,44103,8212,26050,71,78,3,71,0.00,0.45,0.14,0.03
2017-05-18 20:10:00,2,38901,64,0.04,2,2,0,2,22344,50000,9524,39222,0,71,21,71,0.00,0.20,0.08,0.00
2017-05-18 20:20:00,2,38960,36,0.04,2,2,0,2,13950,50000,10926,43841,0,71,36,36,0.00,0.35,0.11,0.00
2017-05-18 20:30:00,2,36145,72,0.04,2,2,0,2,24524,47542,6636,36154,71,77,2,71,0.00,0.20,0.06,0.00
2017-05-18 20:40:00,2,39638,38,0.01,2,2,0,2,15238,50000,11453,43772,0,77,38,36,0.00,0.05,0.02,0.00
2017-05-18 20:50:00,2,22918,66,0.11,2,2,0,2,8263,34941,8943,25802,41,77,13,71,0.00,0.60,0.17,0.08
2017-05-18 21:00:00,2,21440,71,0.13,2,2,0,2,11925,30291,6054,20186,71,71,0,71,0.00,0.55,0.16,0.08
2017-05-18 21:10:00,2,25884,71,0.12,2,2,0,2,17430,33851,5080,26940,71,71,0,71,0.00,0.30,0.11,0.08
2017-05-18 21:20:00,2,22710,71,0.07,2,2,0,2,14618,36801,6317,20883,71,71,0,71,0.00,0.45,0.13,0.03
2017-05-18 21:30:00,2,35411,71,0.04,2,2,0,2,26576,47986,6666,35562,71,71,0,71,0.00,0.15,0.05,0.03
2017-05-18 21:40:00,2,44258,76,0.01,2,2,0,2,31857,50000,6244,45695,71,77,2,77,0.00,0.05,0.02,0.00
2017-05-18 21:50:00,2,32978,73,0.04,2,2,0,2,24497,44284,6370,32178,71,77,3,71,0.00,0.15,0.05,0.03
2017-05-18 22:00:00,2,35325,73,0.03,2,2,0,2,27889,48679,6293,33274,71,77,3,71,0.00,0.20,0.06,0.00
2017-05-18 22:10:00,2,29189,75,0.04,2,2,0,2,19098,36885,6257,29994,71,77,3,77,0.00,0.30,0.09,0.00
2017-05-18 22:20:00,2,37974,73,0.04,2,2,0,2,20800,46684,8401,41558,71,77,3,71,0.00,0.20,0.06,0.00
2017-05-18 22:30:00,2,14772,72,0.20,2,2,0,2,8613,20351,3518,14812,71,77,2,71,0.00,0.95,0.27,0.08
2017-05-18 22:40:00,2,18050,71,0.11,2,2,0,2,13581,27790,3872,17530,71,71,0,71,0.00,0.20,0.07,0.12
2017-05-18 22:50:00,2,13148,71,0.21,2,2,0,2,8552,21100,4118,12720,71,71,0,71,0.00,0.40,0.14,0.25
2017-05-18 23:00:00,2,17876,71,0.18,2,2,0,2,6195,36728,9156,15891,71,71,0,71,0.00,0.50,0.17,0.12
2017-05-18 23:10:00,2,15708,71,0.29,2,2,0,2,4153,33238,9675,10764,71,71,0,71,0.00,0.75,0.29,0.23
2017-05-18 23:20:00,2,10938,71,0.36,2,2,0,2,6612,13805,2690,12064,71,71,0,71,0.05,1.05,0.30,0.35
2017-05-18 23:30:00,2,14432,71,0.26,2,2,0,2,10143,19254,2606,14792,71,71,0,71,0.00,0.60,0.20,0.23
2017-05-18 23:40:00,2,14430,71,0.28,2,2,0,2,8406,20924,3732,13805,71,71,0,71,0.05,0.60,0.18,0.25
2017-05-18 23:50:00,2,13992,71,0.39,2,2,0,2,6046,29777,6001,12547,71,71,0,71,0.00,1.45,0.42,0.25
